EHI
2 2 3 7 8 3 0 0 0 0 0 1 0 0 0 0 1 2 6 12 17 20 20 17 17 21 23 27 33 36 35 31 22 10 4 2 1 0 0 0 0 0 0 0 0 0 0 0 0
1 1 3 5 4 1 0 0 0 0 0 1 1 1 0 1 3 6 11 17 20 20 20 21 24 27 26 27 31 32 29 24 16 8 3 1 0 0 0 0 0 0 0 0 0 0 0 0 0
0 1 1 1 1 0 0 0 0 1 1 2 2 2 1 3 7 12 18 23 23 21 23 29 31 30 29 26 25 24 20 14 9 6 3 1 0 0 0 0 0 0 0 0 0 0 0 0 0
1 1 1 0 0 0 0 0 1 2 2 3 2 3 5 8 12 19 26 27 25 22 24 33 34 28 24 21 17 15 12 8 6 4 2 1 0 0 0 0 0 0 0 0 0 0 0 0 0
1 1 1 0 0 0 0 0 1 2 3 3 2 6 16 23 25 29 32 28 25 23 24 32 34 25 17 12 10 9 7 5 3 2 1 0 0 0 0 0 0 0 0 0 0 0 0 0 0
0 0 0 0 0 0 0 0 0 2 4 4 3 12 33 46 46 43 38 28 23 22 24 30 30 21 12 7 6 6 5 2 1 0 0 0 0 0 0 0 0 0 0 0 0 0 0 0 0
0 0 0 0 0 0 0 0 0 1 4 4 3 15 44 66 67 58 47 33 25 23 27 29 23 14 8 6 5 5 3 1 0 0 0 0 0 0 0 0 0 0 0 0 0 0 0 0 0
0 0 0 0 0 0 0 0 0 1 4 5 4 17 48 76 81 72 61 47 35 29 29 27 18 10 5 3 3 2 1 0 0 1 1 0 0 0 0 0 0 0 0 0 0 0 0 0 0
0 0 0 0 0 0 0 0 0 1 3 7 13 28 57 82 87 81 73 64 54 42 32 26 19 12 6 2 1 0 0 0 0 1 1 0 0 0 0 0 0 0 0 0 0 0 0 0 0
0 0 0 0 0 0 0 0 0 0 2 9 25 49 72 85 86 81 77 74 69 56 38 25 20 16 10 5 3 2 1 0 0 1 1 0 0 0 0 1 0 0 0 0 0 0 0 0 0
0 0 0 0 0 0 0 0 0 0 1 7 29 60 80 85 82 77 73 72 70 60 43 27 20 17 14 11 8 5 3 1 0 0 0 0 0 0 0 0 0 0 0 0 0 0 0 0 0
0 0 0 0 0 0 0 0 0 0 0 5 26 58 78 81 77 70 66 65 62 56 44 31 23 19 17 16 13 8 5 3 1 0 0 0 0 0 0 0 0 0 0 0 0 0 0 0 0
0 0 0 0 0 0 0 0 0 0 0 6 26 53 69 72 70 65 61 60 57 52 43 33 27 23 21 19 16 10 6 5 2 0 0 0 0 0 0 0 0 0 0 0 0 0 0 0 0
0 0 0 0 0 0 0 0 0 0 1 7 24 45 56 60 61 61 60 60 56 50 43 34 27 24 22 20 17 11 7 6 4 2 1 0 0 0 0 0 0 0 0 0 0 0 0 0 0
0 0 0 0 0 0 0 0 0 1 2 6 18 33 44 50 55 58 59 58 54 49 45 36 27 22 20 19 17 12 7 5 5 4 2 0 0 0 0 0 0 0 0 0 0 0 0 0 0
0 0 0 0 0 0 0 0 0 1 2 5 13 24 34 42 49 52 54 56 53 50 46 37 26 21 20 18 17 14 9 6 6 5 2 0 0 1 1 1 0 0 0 0 0 0 0 0 0
0 0 0 0 0 0 0 0 0 1 1 4 11 19 26 35 43 47 51 54 52 49 44 34 24 21 21 19 18 16 12 8 6 4 2 1 0 1 2 1 0 1 1 0 0 0 0 0 0
0 0 0 0 0 0 0 0 0 0 1 3 9 17 22 28 38 44 48 50 48 44 40 33 26 23 23 22 19 16 12 8 5 4 2 1 0 1 2 2 1 2 2 1 0 0 0 0 0
0 0 0 0 0 0 0 0 1 1 1 3 9 17 22 27 36 44 47 45 42 40 38 34 29 27 25 22 17 13 9 7 5 3 2 1 1 2 2 2 1 2 3 2 1 0 0 0 0
0 0 0 0 0 0 0 0 1 2 2 3 7 15 21 28 39 47 46 40 35 35 36 34 31 28 24 19 15 12 9 7 5 4 3 1 1 1 1 1 1 2 3 2 1 0 0 0 0
0 0 0 0 0 0 0 0 1 1 1 1 4 10 17 26 39 48 46 37 31 31 33 33 30 26 21 18 14 11 9 8 6 6 5 2 1 1 1 1 2 2 2 1 1 1 0 0 0
0 0 0 0 0 0 0 0 0 1 1 1 3 8 15 23 33 41 43 39 34 32 32 32 29 24 21 18 14 10 8 7 7 6 5 2 1 0 0 1 1 2 2 1 1 0 0 0 0
0 0 0 0 0 0 0 0 0 1 1 1 4 9 15 22 26 29 33 34 33 32 31 29 26 22 20 18 14 10 8 8 7 6 5 3 2 1 1 1 2 3 4 2 0 0 0 0 0
0 0 0 0 0 0 0 0 0 0 0 1 4 8 14 18 20 21 23 25 27 29 29 26 23 20 19 18 15 11 10 9 7 5 4 5 4 3 2 3 4 6 6 3 2 1 0 0 0
0 0 0 0 0 0 0 0 0 0 0 1 3 7 11 15 17 19 20 20 23 26 26 24 23 21 20 19 17 14 10 8 6 3 3 5 6 4 3 3 4 5 5 4 4 3 1 0 0
0 0 0 0 0 0 0 0 0 0 0 0 2 6 12 16 18 20 20 21 24 25 24 22 22 21 21 20 19 16 12 7 4 2 3 5 6 5 3 2 3 3 2 3 3 3 1 0 0
0 0 0 0 0 0 0 0 0 0 0 0 2 8 14 19 21 23 22 22 23 23 20 19 19 21 22 21 21 19 14 9 4 2 2 4 6 5 2 2 2 1 2 3 3 2 2 1 0
0 0 0 0 0 0 0 0 0 0 0 0 3 9 17 21 22 24 25 23 21 19 16 16 17 18 18 19 19 18 16 12 7 2 1 2 3 3 2 2 2 1 2 2 2 2 2 1 0
0 0 0 0 0 0 0 0 0 0 0 0 3 12 21 24 22 24 24 21 17 14 13 14 14 13 13 15 15 15 15 12 8 3 1 0 1 1 1 1 1 0 1 1 1 1 1 0 0
0 0 0 0 0 0 0 0 0 0 0 0 3 13 23 25 23 23 22 17 14 11 11 12 11 11 12 13 13 14 13 11 7 3 1 0 1 1 1 0 0 0 0 0 0 0 0 0 0
Wind_Speed
10 7 5 5 7 2 9 8 6 6 5 5 3 1 3 4 5 6 8 16 18 19 20 19 16 16 16 15 16 16 15 15 15 14 13 12 11 10 10 9 10 10 10 10 10 10 10 11 11
5 4 6 7 4 6 9 6 6 7 5 3 3 1 2 5 6 8 11 16 19 19 19 18 18 17 16 16 15 15 15 15 14 13 13 11 11 10 10 10 10 10 10 10 10 10 11 11 12
5 6 7 5 2 7 8 6 5 4 3 2 2 2 4 5 6 7 11 19 19 18 18 19 19 18 17 16 15 15 15 14 13 13 12 11 11 10 10 10 10 10 10 10 10 11 11 11 11
5 6 7 4 6 7 5 5 3 1 3 1 1 3 5 6 4 8 16 19 19 18 18 20 19 18 17 16 15 15 14 14 13 12 11 11 10 10 10 10 10 10 10 10 10 11 11 11 11
6 6 5 3 6 5 4 4 2 2 1 2 1 2 6 5 6 13 18 19 18 18 17 20 18 18 17 16 15 15 14 13 13 12 11 10 10 10 10 10 10 10 10 10 10 10 10 10 10
6 6 2 5 6 4 4 3 1 1 1 2 2 2 6 7 9 15 17 17 17 17 17 19 18 17 17 16 15 14 14 13 12 11 11 10 10 10 10 10 10 10 10 10 10 10 10 10 10
6 4 2 3 4 5 6 5 4 2 2 2 2 2 7 9 11 14 16 15 16 16 16 17 17 16 16 15 14 14 13 12 12 11 11 11 10 10 10 9 9 9 9 10 10 10 9 9 9
6 5 2 3 3 5 6 5 4 5 2 3 2 2 6 12 13 14 14 14 14 14 15 16 16 15 14 14 14 14 13 12 11 11 11 11 10 10 10 10 9 9 9 9 9 9 9 8 8
6 6 1 4 4 5 7 7 4 2 1 3 1 3 8 17 16 15 14 13 13 13 13 14 15 14 13 13 14 14 13 11 11 11 11 10 9 10 9 10 9 9 9 9 9 9 8 8 9
6 4 4 5 6 8 9 7 5 3 4 4 5 7 13 17 17 17 17 16 16 15 14 11 13 13 12 10 11 9 10 10 9 8 10 7 5 5 7 11 8 8 9 9 8 8 8 7 7
5 5 5 5 7 9 9 7 3 5 3 1 5 11 16 17 16 16 16 16 16 15 14 13 12 12 11 8 9 7 5 7 7 8 7 5 5 5 6 6 7 7 9 7 8 8 5 4 3
6 5 6 7 8 8 8 7 4 4 5 4 2 13 17 17 17 16 16 16 15 15 15 13 12 11 10 8 7 7 6 6 6 7 7 6 4 4 4 3 5 5 4 4 4 3 3 3 4
8 6 7 8 7 6 6 6 4 3 4 3 7 13 16 15 15 14 14 14 14 14 15 13 12 11 9 8 6 7 6 6 6 6 6 5 5 4 4 3 3 4 4 5 4 3 4 4 4
5 8 9 8 5 4 6 4 2 2 3 4 8 12 13 13 14 14 14 14 14 14 14 13 12 11 10 8 7 6 6 6 6 6 7 6 4 4 4 5 4 3 3 3 3 4 4 4 3
8 10 9 5 4 3 8 5 1 3 1 4 7 9 11 11 12 13 14 14 14 14 13 13 12 12 11 10 9 7 6 7 6 6 7 7 5 5 4 3 4 4 3 4 3 4 3 4 4
9 10 8 3 2 2 8 4 5 2 2 4 6 8 9 10 11 11 12 12 13 13 13 13 11 12 11 9 8 6 6 6 5 5 6 7 6 5 4 4 4 4 4 4 4 4 3 3 3
10 9 6 2 0 5 7 5 2 0 3 4 6 7 8 9 10 11 12 12 13 13 13 13 11 12 11 10 8 7 6 6 6 6 6 7 7 7 5 4 3 5 4 4 4 4 3 4 3
5 6 5 4 2 7 7 5 2 1 3 4 5 6 7 8 10 10 11 12 12 12 12 13 12 11 11 9 7 6 6 6 6 6 5 7 6 7 5 5 5 5 4 3 2 2 2 2 3
6 8 8 5 5 8 7 6 2 1 3 3 4 5 6 7 8 10 10 11 12 12 13 13 13 12 10 8 8 8 7 6 6 6 7 7 7 7 6 5 5 4 4 4 5 4 5 4 3
10 11 9 5 2 7 7 7 2 2 2 2 3 5 6 7 9 10 11 11 12 13 13 13 13 12 11 8 7 6 6 5 5 5 6 7 7 7 7 6 5 5 3 4 4 4 3 4 4
12 11 8 6 6 6 8 7 4 4 3 3 4 4 6 8 9 10 11 11 11 12 13 12 13 12 12 10 7 6 5 5 6 6 6 7 7 7 6 7 6 5 6 5 6 6 6 4 4
11 8 7 7 9 4 4 7 2 3 4 5 5 6 7 7 8 9 10 10 11 11 12 12 12 12 11 11 10 11 9 8 8 6 6 7 7 7 7 7 6 6 5 4 7 6 5 5 4
8 3 6 7 8 9 7 8 3 3 3 3 6 6 7 7 8 9 9 9 9 10 10 10 11 11 12 12 11 11 10 8 6 6 7 7 6 7 7 7 6 6 5 5 5 4 5 5 5
7 6 6 8 9 10 6 8 5 1 2 1 4 6 7 7 7 8 7 8 8 9 9 10 11 11 11 12 12 12 11 9 9 8 8 8 6 6 8 7 6 7 5 5 6 5 6 4 3
11 10 9 10 9 7 3 7 4 2 1 1 2 6 7 7 7 8 8 8 8 9 10 11 11 11 11 11 11 12 11 11 11 9 8 8 7 7 8 8 7 6 5 5 5 5 4 5 4
14 14 9 7 6 5 6 6 1 3 2 2 3 6 8 8 8 8 8 8 8 9 10 10 11 11 11 11 10 10 11 9 8 9 8 7 6 7 8 8 7 7 7 6 5 5 5 4 5
13 14 13 10 8 7 5 4 4 5 5 5 5 7 8 8 8 8 8 8 8 8 9 9 10 10 10 10 9 9 9 9 8 8 8 7 6 6 8 8 8 7 7 6 6 4 4 4 5
10 10 8 10 8 9 7 7 4 5 6 6 7 8 8 9 9 9 8 8 8 8 8 8 9 9 9 9 8 7 8 8 8 8 8 8 7 7 8 8 8 8 7 7 6 5 5 5 3
11 10 10 9 9 8 6 3 2 3 4 6 7 7 9 9 9 9 8 8 8 8 8 8 8 8 8 8 8 7 7 8 8 8 8 8 8 8 9 8 8 8 8 7 6 5 5 5 4
12 12 12 10 9 9 9 2 7 4 4 5 6 7 8 8 9 9 9 8 8 7 7 7 8 8 7 7 7 7 7 7 8 8 8 8 8 8 8 8 8 8 7 7 7 6 6 6 5
Wind_Direction
204 214 235 243 237 135 71 68 57 63 65 66 86 54 34 30 12 62 110 144 144 145 143 150 148 146 143 139 137 136 136 136 137 136 134 131 128 124 122 118 113 110 108 106 108 111 114 115 116
209 224 237 243 258 85 78 64 57 48 57 93 122 132 65 69 55 100 136 145 149 146 147 152 147 147 144 142 140 139 139 138 137 136 134 131 127 124 121 116 113 111 110 109 109 111 113 115 115
223 243 263 253 48 58 66 59 52 66 96 133 110 46 32 62 101 131 143 151 152 147 147 143 151 149 147 145 143 142 142 141 140 139 137 134 129 126 121 118 114 112 111 111 110 111 114 116 115
240 231 238 246 82 61 29 23 25 126 132 144 136 98 82 54 103 136 145 156 151 148 150 145 155 151 149 148 147 146 145 143 142 141 138 135 132 126 121 118 116 112 111 112 112 114 115 115 115
244 257 231 130 79 60 31 5 316 266 146 133 187 97 97 85 111 137 152 158 153 154 150 147 155 152 152 151 150 149 147 146 145 142 140 137 131 125 122 121 116 112 112 113 113 116 117 118 118
248 248 233 85 79 64 48 22 311 278 220 162 177 150 96 109 135 148 156 160 157 155 150 144 154 154 154 154 153 152 149 148 147 145 141 136 130 127 126 121 117 115 114 115 116 117 118 119 120
279 281 70 72 75 73 37 6 337 316 244 184 176 156 117 133 142 151 157 160 158 157 150 150 156 157 156 156 155 154 152 151 148 144 141 136 131 128 125 121 120 117 116 117 118 118 119 122 126
287 269 168 90 48 53 29 357 352 320 2 96 195 213 133 144 147 151 155 160 160 161 155 155 161 158 161 159 158 156 154 152 147 144 142 139 135 132 132 138 123 123 122 121 122 122 123 126 129
265 253 104 48 12 10 359 340 355 338 149 148 135 48 103 137 148 152 156 161 164 167 163 163 160 161 165 162 155 161 157 154 155 153 149 161 160 146 156 119 126 132 129 124 124 126 130 139 136
255 264 43 10 346 334 332 328 324 246 207 176 144 112 127 144 156 162 165 169 171 171 169 166 162 164 167 162 157 167 167 162 177 158 161 166 143 143 125 120 137 136 133 133 128 133 159 190 149
256 294 347 334 339 326 318 322 309 282 283 250 183 153 152 158 165 170 173 175 173 171 169 169 167 170 169 164 164 166 165 162 169 158 160 149 152 152 145 147 153 155 162 155 145 173 172 150 118
261 281 304 312 327 319 318 319 317 306 343 5 145 155 160 167 173 176 176 176 172 171 171 173 171 173 175 171 165 168 167 167 168 157 171 162 163 163 146 157 153 166 161 149 159 157 142 130 140
247 281 299 303 307 320 307 302 308 334 11 59 129 154 166 173 174 177 177 173 173 174 173 174 174 174 173 172 176 174 170 171 167 159 169 175 170 170 156 156 166 180 152 163 172 157 149 157 162
283 287 286 288 300 303 303 298 276 18 47 118 145 160 171 175 173 172 175 176 177 176 175 173 176 175 175 177 179 176 177 173 171 173 169 184 179 165 172 172 175 175 176 165 167 155 167 177 156
274 275 267 252 284 319 298 245 65 44 111 146 153 163 171 177 177 178 180 179 178 177 176 176 177 176 179 181 181 178 185 177 179 173 172 185 189 168 185 181 184 176 166 158 183 168 177 175 168
247 251 246 188 303 324 295 295 79 78 174 169 163 165 171 177 184 182 180 180 178 177 177 179 180 179 182 184 186 180 187 180 184 181 179 188 190 183 194 192 189 174 183 183 173 194 182 175 180
228 242 250 213 207 312 295 304 46 290 211 190 181 175 175 177 186 184 182 181 180 179 178 178 183 181 182 181 185 187 184 188 192 193 190 185 194 190 200 200 170 192 195 194 200 176 203 181 181
242 256 251 264 321 307 291 299 337 228 221 206 190 184 183 188 187 183 182 180 180 180 180 182 185 183 181 179 180 187 186 189 197 197 194 193 197 194 200 195 183 203 194 196 205 171 210 206 194
282 273 272 285 320 301 291 299 306 206 214 199 191 187 191 194 175 173 176 179 179 182 182 185 186 181 181 180 184 186 187 190 193 197 192 198 203 192 202 209 176 207 199 203 199 194 187 201 183
248 257 261 263 306 295 296 289 269 175 209 213 197 189 187 179 169 172 175 180 184 185 187 189 189 184 185 185 187 188 186 192 197 194 187 202 201 197 196 208 202 196 196 201 209 209 216 190 184
237 250 265 288 298 247 278 255 203 175 178 183 193 188 186 180 177 174 179 183 186 188 189 189 188 185 187 183 180 178 177 191 192 194 191 198 199 202 207 201 215 198 211 193 205 206 213 207 192
236 240 260 271 272 263 283 288 228 185 204 194 188 186 180 174 178 178 181 186 190 190 188 186 187 186 185 186 188 187 193 197 197 195 187 190 198 201 203 206 207 210 216 191 208 202 213 214 206
243 242 252 263 265 271 246 271 269 190 239 198 186 185 176 170 176 180 183 186 189 187 184 181 182 185 188 194 194 196 202 201 193 192 186 196 194 201 205 204 202 204 213 206 220 190 223 213 221
217 219 229 244 250 250 254 272 276 274 329 164 167 177 173 171 173 172 173 176 182 182 180 179 179 185 188 193 197 200 202 201 197 196 189 198 193 195 199 202 201 207 207 199 209 207 206 231 232
207 221 221 219 222 236 179 257 279 35 29 278 180 175 174 172 170 167 170 174 177 180 178 176 178 184 188 192 196 200 200 201 203 202 198 202 196 193 194 198 199 205 200 204 206 205 213 205 205
207 225 242 251 240 211 179 245 264 105 133 159 171 165 169 171 168 165 165 168 174 176 177 177 178 184 188 192 197 200 201 205 205 205 201 204 205 197 186 193 193 195 197 202 197 204 200 200 207
211 226 243 260 269 269 236 236 219 165 175 169 158 158 167 167 164 161 160 162 166 170 172 176 178 184 190 192 193 198 202 209 206 198 201 202 202 195 187 190 189 190 191 196 197 205 200 195 206
239 225 220 237 243 248 236 235 238 186 184 172 168 166 166 165 166 160 160 163 162 163 165 171 177 184 188 189 193 195 199 201 198 196 195 197 196 192 185 189 188 188 186 186 198 192 189 191 195
193 209 223 233 249 261 256 231 107 172 170 175 170 167 166 167 165 160 157 156 159 160 163 168 174 181 185 186 188 193 196 195 192 191 192 191 190 186 187 190 186 187 186 185 190 197 179 190 180
212 213 213 227 228 245 271 266 110 144 153 166 158 158 158 157 157 157 153 154 161 164 165 169 174 179 182 182 182 184 190 194 192 190 188 185 185 184 184 185 184 187 183 181 185 191 181 183 177